1494507605;13.396;4.604;6.133;5.235;11.861
1494507610;13.395;4.605;6.134;5.235;11.885
1494507615;13.535;4.655;6.130;5.229;11.885
1494507620;13.381;4.593;6.141;5.225;12.042
1494507625;13.393;4.605;6.138;5.236;11.883
1494507630;13.536;4.638;6.132;5.237;11.887
1494507635;13.366;4.655;6.130;5.228;12.053
1494507640;13.396;4.604;6.138;5.237;11.847
1494507645;13.395;4.604;6.133;5.237;11.886
1494507650;13.520;4.649;6.136;5.225;11.878
1494507655;13.393;4.603;6.135;5.230;12.054
1494507660;13.396;4.604;6.132;5.234;11.884
1494507665;13.535;4.656;6.136;5.236;11.883
1494507670;13.367;4.629;6.131;5.225;12.048
1494507675;13.396;4.604;6.135;5.235;11.851
1494507680;13.379;4.598;6.141;5.237;11.872
1494507685;13.532;4.655;6.128;5.226;11.883
1494507690;13.396;4.604;6.131;5.236;12.064
1494507695;13.396;4.605;6.137;5.235;11.884
1494507701;13.535;4.656;6.137;5.236;11.885
1494507706;13.372;4.595;6.132;5.227;12.067
1494507711;13.384;4.594;6.134;5.239;11.853
1494507716;13.436;4.604;6.140;5.246;11.866
1494507721;13.520;4.652;6.128;5.225;11.886
1494507726;13.396;4.605;6.141;5.239;12.013
1494507731;13.395;4.603;6.134;5.237;11.885
1494507736;13.535;4.654;6.123;5.233;11.884
1494507741;13.393;4.592;6.148;5.230;12.022
1494507746;13.392;4.603;6.128;5.237;11.874
1494507751;13.517;4.599;6.142;5.237;11.879
1494507756;13.455;4.655;6.132;5.226;12.063
1494507761;13.396;4.604;6.139;5.238;12.009
1494507766;13.395;4.606;6.136;5.238;11.882
1494507771;13.535;4.656;6.132;5.239;11.870
1494507776;13.380;4.592;6.137;5.228;12.063
1494507781;13.377;4.598;6.139;5.239;11.873
1494507786;13.532;4.603;6.145;5.239;11.884
1494507791;13.365;4.656;6.130;5.229;12.052
1494507796;13.395;4.604;6.145;5.236;11.851
1494507801;13.395;4.605;6.135;5.234;11.882
1494507806;13.520;4.649;6.132;5.231;11.878
1494507812;13.371;4.590;6.137;5.229;12.036
1494507817;13.363;4.591;6.169;5.237;11.887
1494507822;13.531;4.639;6.140;5.233;11.876
1494507827;13.366;4.648;6.128;5.225;12.052
1494507832;13.395;4.605;6.141;5.235;11.854
1494507837;13.394;4.605;6.132;5.235;11.886
1494507842;13.535;4.653;6.132;5.221;11.877
1494507847;13.392;4.603;6.143;5.232;12.040
1494507852;13.360;4.599;6.146;5.236;11.874
1494507857;13.531;4.654;6.134;5.235;11.874
1494507862;13.366;4.608;6.134;5.228;12.052
1494507867;13.395;4.605;6.133;5.239;11.861
1494507872;13.394;4.605;6.135;5.236;11.877
1494507877;13.517;4.652;6.133;5.226;11.948
1494507882;13.377;4.600;6.138;5.238;12.050
1494507887;13.391;4.605;6.133;5.237;11.889
1494507892;13.535;4.656;6.136;5.235;11.887
1494507897;13.368;4.592;6.129;5.225;12.070
1494507902;13.392;4.603;6.143;5.235;11.847
1494507907;13.405;4.599;6.152;5.239;11.872
1494507912;13.519;4.649;6.145;5.228;12.045
1494507917;13.392;4.602;6.140;5.238;11.971
1494507923;13.395;4.604;6.136;5.237;11.883
1494507928;13.535;4.656;6.133;5.239;11.882
1494507933;13.394;4.593;6.131;5.230;12.061
1494507938;13.376;4.595;6.141;5.240;11.867
1494507943;13.516;4.598;6.134;5.239;11.854
1494507948;13.439;4.654;6.134;5.228;12.062
1494507953;13.395;4.605;6.133;5.242;11.854
1494507958;13.394;4.604;6.135;5.239;11.883
1494507963;13.535;4.654;6.130;5.238;11.880
1494507968;13.379;4.583;6.147;5.230;12.042
1494507973;13.373;4.596;6.156;5.239;11.864
1494507978;13.531;4.615;6.141;5.236;11.879
1494507983;13.365;4.602;6.134;5.228;12.059
1494507988;13.395;4.604;6.137;5.238;11.885
1494507993;13.535;4.603;6.139;5.238;11.886
1494507998;13.473;4.655;6.133;5.246;12.031
1494508003;13.391;4.597;6.144;5.246;11.844
1494508008;13.391;4.602;6.141;5.237;11.877
1494508013;13.534;4.655;6.134;5.238;11.885
1494508018;13.395;4.594;6.136;5.230;12.069
1494508023;13.394;4.604;6.139;5.237;11.886
1494508029;13.534;4.603;6.133;5.235;11.887
1494508034;13.349;4.649;6.134;5.240;12.028
1494508039;13.391;4.603;6.143;5.240;11.855
1494508044;13.394;4.605;6.137;5.240;11.884
1494508049;13.534;4.655;6.132;5.232;11.886
1494508054;13.395;4.598;6.136;5.224;12.066
1494508059;13.394;4.604;6.132;5.237;11.887
1494508064;13.519;4.650;6.142;5.240;11.861
1494508069;13.350;4.632;6.132;5.225;12.053
1494508074;13.395;4.604;6.140;5.234;11.854
1494508079;13.393;4.605;6.138;5.237;11.889
1494508084;13.534;4.656;6.132;5.227;11.886
1494508089;13.395;4.604;6.144;5.240;12.070
1494508094;13.368;4.598;6.130;5.232;11.883
1494508099;13.518;4.655;6.135;5.234;11.883
1494508104;13.369;4.594;6.134;5.228;12.064
1494508109;13.395;4.606;6.138;5.238;11.863
1494508114;13.408;4.605;6.134;5.237;11.890
1494508119;13.534;4.656;6.134;5.229;11.930
1494508124;13.391;4.597;6.153;5.241;11.971
1494508129;13.377;4.598;6.132;5.235;11.873
1494508134;13.534;4.656;6.140;5.237;11.887
1494508139;13.387;4.594;6.133;5.228;12.068
1494508145;13.394;4.604;6.132;5.235;11.881
1494508150;13.513;4.605;6.136;5.237;11.888
1494508155;13.498;4.657;6.140;5.237;12.023
1494508160;13.379;4.598;6.136;5.237;12.007
1494508165;13.389;4.605;6.140;5.235;11.889
1494508170;13.534;4.657;6.133;5.237;11.890
1494508175;13.395;4.595;6.145;5.230;12.068
1494508180;13.394;4.605;6.135;5.237;11.885
1494508185;13.534;4.604;6.143;5.236;11.854
1494508190;13.346;4.649;6.141;5.228;12.062
1494508195;13.391;4.605;6.132;5.238;11.862
1494508200;13.393;4.605;6.133;5.240;11.891
1494508205;13.534;4.657;6.135;5.243;11.888
1494508210;13.395;4.595;6.146;5.229;12.063
1494508215;13.394;4.604;6.132;5.236;11.885
1494508220;13.519;4.605;6.150;5.239;11.888
1494508225;13.361;4.653;6.131;5.226;12.070
1494508230;13.394;4.604;6.135;5.237;11.852
1494508235;13.393;4.606;6.139;5.238;11.892
1494508240;13.534;4.656;6.131;5.227;11.890
1494508245;13.394;4.602;6.150;5.227;12.071
1494508250;13.377;4.597;6.145;5.237;11.870
1494508255;13.531;4.654;6.131;5.236;11.891
1494508261;13.365;4.639;6.133;5.227;12.070
1494508266;13.394;4.605;6.134;5.239;11.859
1494508271;13.392;4.603;6.140;5.238;11.890
1494508276;13.534;4.655;6.132;5.227;11.868
1494508281;13.357;4.596;6.145;5.244;12.028
1494508286;13.390;4.602;6.128;5.235;11.890
1494508291;13.534;4.656;6.132;5.236;11.887
1494508296;13.365;4.614;6.132;5.227;12.071
1494508301;13.394;4.605;6.140;5.238;11.871
1494508306;13.392;4.605;6.134;5.235;11.884
1494508311;13.534;4.651;6.191;5.233;11.935
1494508316;13.391;4.604;6.137;5.239;12.036
1494508321;13.382;4.601;6.132;5.239;11.871
1494508326;13.530;4.654;6.142;5.234;11.891
1494508331;13.378;4.594;6.137;5.225;12.069
1494508336;13.394;4.606;6.138;5.240;11.890
1494508341;13.513;4.605;6.139;5.242;11.852
1494508346;13.492;4.656;6.130;5.226;12.067
1494508351;13.371;4.598;6.146;5.237;11.908
1494508356;13.390;4.604;6.143;5.236;11.895
1494508361;13.534;4.658;6.133;5.239;11.892
1494508366;13.382;4.589;6.151;5.227;12.062
1494508371;13.389;4.606;6.133;5.239;11.890
1494508377;13.519;4.602;6.144;5.239;11.883
1494508382;13.369;4.654;6.179;5.230;12.019
1494508387;13.391;4.605;6.139;5.238;11.859
1494508392;13.393;4.607;6.137;5.239;11.893
1494508397;13.533;4.657;6.136;5.235;11.886
1494508402;13.394;4.597;6.138;5.228;12.068
1494508407;13.378;4.601;6.137;5.240;11.897
1494508412;13.530;4.608;6.132;5.241;11.869
1494508417;13.356;4.646;6.195;5.239;12.051
1494508422;13.379;4.602;6.141;5.238;11.862
1494508427;13.393;4.605;6.135;5.235;11.895
1494508432;13.534;4.657;6.126;5.231;11.893
1494508437;13.394;4.600;6.142;5.221;12.078
1494508442;13.393;4.604;6.143;5.234;11.886
1494508447;13.518;4.628;6.131;5.239;11.890
1494508452;13.346;4.650;6.144;5.226;12.077
1494508457;13.390;4.606;6.142;5.235;11.865
1494508462;13.392;4.607;6.140;5.238;11.895
1494508467;13.533;4.657;6.134;5.222;11.897
1494508472;13.394;4.606;6.140;5.233;12.074
1494508477;13.375;4.599;6.143;5.237;11.890
1494508482;13.518;4.651;6.138;5.238;11.896
1494508488;13.361;4.611;6.134;5.228;12.071
1494508493;13.394;4.606;6.143;5.235;11.870
1494508498;13.392;4.606;6.140;5.238;11.899
1494508503;13.533;4.656;6.133;5.226;11.886
1494508508;13.361;4.598;6.147;5.247;12.035
1494508513;13.373;4.599;6.138;5.237;11.878
1494508518;13.530;4.656;6.130;5.239;11.897
1494508523;13.369;4.595;6.133;5.228;12.068
1494508528;13.394;4.605;6.138;5.237;11.876
1494508533;13.453;4.606;6.137;5.240;11.903
1494508538;13.532;4.650;6.149;5.232;12.053
1494508543;13.358;4.600;6.138;5.245;11.934
1494508548;13.390;4.604;6.139;5.238;11.887
1494508553;13.533;4.656;6.133;5.238;11.896
1494508558;13.393;4.594;6.131;5.232;12.062
1494508563;13.394;4.604;6.148;5.241;11.900
1494508568;13.533;4.603;6.138;5.241;11.863
1494508573;13.376;4.647;6.141;5.232;12.033
1494508578;13.390;4.603;6.130;5.243;11.845
1494508583;13.393;4.604;6.137;5.239;11.902
1494508588;13.533;4.655;6.133;5.244;11.896
1494508593;13.394;4.593;6.139;5.232;12.064
1494508599;13.394;4.604;6.136;5.238;11.897
1494508604;13.518;4.616;6.131;5.244;11.877
1494508609;13.360;4.652;6.132;5.230;12.061
1494508614;13.393;4.604;6.138;5.239;11.868
1494508619;13.392;4.605;6.132;5.242;11.893
1494508624;13.533;4.655;6.136;5.232;11.897
1494508629;13.394;4.601;6.146;5.229;12.059
1494508634;13.373;4.599;6.146;5.244;11.872
1494508639;13.530;4.653;6.143;5.240;11.885
1494508644;13.364;4.628;6.134;5.233;12.059
1494508649;13.394;4.604;6.132;5.242;11.872
1494508654;13.392;4.602;6.131;5.240;11.897
1494508659;13.533;4.654;6.132;5.234;11.905
1494508664;13.367;4.596;6.155;5.249;12.046
1494508669;13.389;4.601;6.139;5.242;11.897
1494508674;13.533;4.656;6.130;5.245;11.901
1494508679;13.373;4.592;6.133;5.235;12.062
1494508684;13.393;4.602;6.142;5.241;11.874
1494508689;13.448;4.603;6.135;5.244;11.898
1494508694;13.526;4.644;6.138;5.243;12.048
1494508699;13.389;4.600;6.134;5.244;11.950
1494508705;13.393;4.602;6.136;5.244;11.904
1494508710;13.533;4.654;6.131;5.245;11.899
1494508715;13.393;4.591;6.135;5.233;12.063
1494508720;13.393;4.602;6.140;5.242;11.902
1494508725;13.533;4.602;6.143;5.265;11.864
1494508730;13.368;4.652;6.130;5.232;12.063
1494508735;13.393;4.602;6.140;5.244;11.871
1494508740;13.392;4.601;6.131;5.243;11.903
1494508745;13.533;4.652;6.132;5.244;11.902
1494508750;13.393;4.590;6.147;5.234;12.068
1494508755;13.393;4.601;6.142;5.242;11.858
1494508760;13.514;4.603;6.130;5.244;11.909
1494508765;13.363;4.651;6.133;5.231;12.068
1494508770;13.393;4.601;6.142;5.241;11.873
1494508775;13.392;4.602;6.131;5.245;11.910
1494508780;13.533;4.652;6.132;5.233;11.905
1494508785;13.393;4.599;6.133;5.237;12.069
1494508790;13.375;4.596;6.133;5.245;11.909
1494508795;13.529;4.653;6.136;5.242;11.904
1494508800;13.364;4.617;6.132;5.234;12.074
1494508805;13.393;4.604;6.136;5.245;11.874
1494508810;13.391;4.602;6.140;5.243;11.910
1494508816;13.532;4.655;6.133;5.233;11.912
1494508821;13.392;4.600;6.153;5.259;12.028
1494508826;13.389;4.602;6.137;5.242;11.900
1494508831;13.532;4.655;6.133;5.237;11.911
1494508836;13.393;4.597;6.138;5.235;12.074
1494508841;13.393;4.606;6.132;5.245;11.914
1494508846;13.532;4.634;6.135;5.243;11.910
1494508851;13.363;4.656;6.126;5.238;12.035
1494508856;13.384;4.604;6.143;5.246;11.882
1494508861;13.391;4.606;6.139;5.245;11.910
1494508866;13.532;4.657;6.132;5.236;11.914
1494508871;13.393;4.607;6.137;5.247;12.075
1494508876;13.392;4.606;6.166;5.246;11.911
1494508881;13.529;4.656;6.135;5.247;11.911
1494508886;13.349;4.598;6.134;5.240;12.072
1494508891;13.392;4.606;6.132;5.248;11.896
1494508896;13.389;4.604;6.137;5.244;11.915
1494508901;13.532;4.657;6.133;5.236;11.960
1494508906;13.393;4.608;6.138;5.250;12.082
1494508911;13.392;4.606;6.135;5.245;11.919
1494508916;13.513;4.652;6.133;5.248;11.911
1494508921;13.365;4.590;6.150;5.240;12.066
1494508927;13.389;4.607;6.131;5.246;11.918
1494508932;13.533;4.661;6.132;5.248;11.922
1494508937;13.363;4.628;6.133;5.238;12.079
1494508942;13.393;4.609;6.140;5.246;11.892
1494508947;13.372;4.602;6.140;5.251;11.902
1494508952;13.508;4.653;6.138;5.240;11.916
1494508957;13.389;4.607;6.143;5.248;12.085
1494508962;13.392;4.610;6.134;5.248;11.927
1494508967;13.532;4.661;6.136;5.247;11.927
1494508972;13.374;4.599;6.133;5.237;12.082
1494508977;13.357;4.602;6.150;5.248;11.893
1494508982;13.438;4.601;6.156;5.248;11.925
1494508987;13.528;4.660;6.135;5.239;11.975
1494508992;13.393;4.609;6.129;5.250;11.951
1494508997;13.392;4.610;6.144;5.248;11.924
1494509002;13.532;4.661;6.132;5.247;11.924
1494509007;13.392;4.597;6.153;5.243;12.059
1494509012;13.389;4.608;6.130;5.258;11.906
1494509017;13.529;4.608;6.169;5.258;11.851
1494509022;13.415;4.656;6.140;5.236;12.085
1494509027;13.391;4.610;6.138;5.248;11.900
1494509032;13.392;4.611;6.138;5.247;11.932
1494509037;13.532;4.662;6.132;5.249;11.930
1494509043;13.392;4.599;6.144;5.238;12.082
1494509048;13.374;4.603;6.141;5.246;11.925
1494509053;13.513;4.602;6.135;5.250;11.916
1494509058;13.358;4.659;6.133;5.240;12.083
1494509063;13.392;4.611;6.144;5.251;11.902
1494509068;13.391;4.610;6.136;5.251;11.922
1494509073;13.532;4.661;6.133;5.241;11.923
1494509078;13.374;4.601;6.140;5.239;12.069
1494509083;13.373;4.602;6.139;5.250;11.902
1494509088;13.529;4.643;6.130;5.248;11.928
1494509093;13.362;4.661;6.133;5.240;12.088
1494509098;13.392;4.609;6.138;5.247;11.903
1494509103;13.391;4.609;6.133;5.247;11.928
1494509108;13.506;4.653;6.141;5.238;11.903
1494509113;13.366;4.602;6.145;5.246;12.087
1494509118;13.388;4.608;6.137;5.249;11.928
1494509123;13.532;4.661;6.132;5.247;11.930
1494509128;13.363;4.612;6.132;5.237;12.090
1494509133;13.392;4.609;6.136;5.246;11.915
1494509138;13.391;4.604;6.164;5.253;11.914
1494509143;13.517;4.650;6.136;5.244;11.913
1494509148;13.389;4.608;6.133;5.251;12.087
1494509153;13.392;4.608;6.135;5.246;11.925
1494509159;13.532;4.661;6.133;5.247;11.928
1494509164;13.373;4.598;6.133;5.239;12.089
1494509169;13.392;4.610;6.132;5.256;11.881
1494509174;13.449;4.606;6.164;5.254;11.907
1494509179;13.528;4.659;6.137;5.239;12.083
1494509184;13.392;4.609;6.131;5.249;12.005
1494509189;13.392;4.609;6.136;5.245;11.930
1494509194;13.532;4.661;6.134;5.245;11.929
1494509199;13.392;4.599;6.144;5.239;12.077
1494509204;13.373;4.605;6.148;5.252;11.873
1494509209;13.520;4.608;6.147;5.246;11.917
1494509214;13.362;4.661;6.133;5.237;12.088
1494509219;13.392;4.611;6.146;5.251;11.898
1494509224;13.391;4.610;6.137;5.250;11.920
1494509229;13.532;4.661;6.136;5.243;11.921
1494509234;13.376;4.596;6.146;5.243;12.050
1494509239;13.376;4.609;6.136;5.251;11.910
1494509244;13.532;4.648;6.144;5.251;11.917
1494509249;13.362;4.655;6.133;5.240;12.078
1494509254;13.392;4.609;6.144;5.250;11.891
1494509259;13.391;4.610;6.133;5.248;11.917
1494509264;13.504;4.653;6.131;5.240;11.907
1494509269;13.374;4.605;6.143;5.253;12.077
1494509275;13.391;4.609;6.143;5.249;11.917
1494509280;13.532;4.661;6.137;5.250;11.914
1494509285;13.363;4.599;6.134;5.241;12.077
1494509290;13.392;4.610;6.142;5.250;11.888
1494509295;13.389;4.602;6.153;5.251;11.900
1494509300;13.513;4.654;6.128;5.240;11.941
1494509305;13.392;4.610;6.140;5.252;12.081
1494509310;13.391;4.610;6.141;5.251;11.913
1494509315;13.532;4.661;6.136;5.251;11.919
1494509320;13.383;4.598;6.135;5.242;12.080
1494509325;13.391;4.608;6.137;5.253;11.884
1494509330;13.495;4.603;6.149;5.250;11.920
1494509335;13.498;4.661;6.136;5.242;12.081
1494509340;13.391;4.609;6.136;5.251;12.022
1494509345;13.391;4.609;6.144;5.249;11.921
1494509350;13.531;4.660;6.134;5.247;11.919
1494509355;13.392;4.597;6.143;5.238;12.083
1494509360;13.373;4.602;6.145;5.249;11.918
1494509365;13.528;4.609;6.132;5.251;11.921
1494509370;13.361;4.660;6.133;5.240;12.080
1494509375;13.392;4.609;6.144;5.250;11.892
1494509380;13.390;4.610;6.139;5.248;11.919
1494509385;13.531;4.660;6.133;5.241;11.919
1494509391;13.376;4.599;6.141;5.242;12.084
1494509396;13.388;4.608;6.140;5.250;11.919
1494509401;13.531;4.659;6.144;5.247;11.919
1494509406;13.362;4.636;6.134;5.240;12.084
1494509411;13.391;4.610;6.138;5.252;11.893
1494509416;13.390;4.609;6.135;5.249;11.917
1494509421;13.497;4.655;6.143;5.243;11.909
1494509426;13.388;4.608;6.135;5.256;12.078
1494509431;13.391;4.610;6.142;5.251;11.922
1494509436;13.531;4.661;6.139;5.250;11.921
1494509441;13.363;4.597;6.134;5.238;12.086
1494509446;13.391;4.609;6.143;5.248;11.891
1494509451;13.395;4.600;6.148;5.256;11.908
1494509456;13.528;4.659;6.135;5.241;12.081
1494509461;13.391;4.609;6.135;5.250;12.038
1494509466;13.391;4.609;6.146;5.250;11.921
1494509471;13.531;4.661;6.131;5.251;11.918
1494509476;13.378;4.599;6.135;5.242;12.080
1494509481;13.391;4.609;6.136;5.264;11.909
1494509486;13.527;4.608;6.148;5.251;11.921
1494509491;13.473;4.661;6.135;5.242;12.080
1494509496;13.391;4.610;6.142;5.253;11.898
1494509501;13.391;4.610;6.142;5.248;11.923
1494509507;13.531;4.661;6.135;5.251;11.926
1494509512;13.392;4.599;6.143;5.243;12.074
1494509517;13.373;4.607;6.141;5.251;11.916
1494509522;13.491;4.598;6.149;5.250;11.921
1494509527;13.357;4.659;6.135;5.238;12.087
1494509532;13.391;4.609;6.147;5.253;11.898
1494509537;13.390;4.608;6.135;5.250;11.929
1494509542;13.531;4.661;6.135;5.245;11.927
1494509547;13.376;4.598;6.137;5.238;12.085
1494509552;13.387;4.608;6.131;5.249;11.897
1494509557;13.527;4.646;6.144;5.250;11.925
1494509562;13.362;4.652;6.130;5.241;12.080
1494509567;13.391;4.610;6.140;5.250;11.897
1494509572;13.390;4.610;6.136;5.251;11.921
1494509577;13.510;4.655;6.134;5.243;11.888
1494509582;13.388;4.608;6.134;5.257;12.079
1494509587;13.373;4.604;6.136;5.251;11.930
1494509592;13.527;4.660;6.147;5.250;11.922
1494509597;13.362;4.602;6.137;5.240;12.084
1494509602;13.391;4.610;6.145;5.251;11.910
1494509607;13.369;4.601;6.147;5.251;11.906
1494509612;13.527;4.661;6.138;5.238;12.030
1494509617;13.372;4.603;6.152;5.250;12.062
1494509623;13.378;4.607;6.145;5.251;11.919
1494509628;13.527;4.662;6.141;5.250;11.928
1494509633;13.385;4.600;6.132;5.240;12.087
1494509638;13.386;4.610;6.144;5.247;11.932
1494509643;13.530;4.611;6.133;5.249;11.926
1494509648;13.442;4.657;6.133;5.244;12.074
1494509653;13.369;4.604;6.147;5.255;11.911
1494509658;13.387;4.610;6.138;5.250;11.928
1494509663;13.531;4.663;6.136;5.253;11.926
1494509668;13.391;4.601;6.135;5.242;12.081
1494509673;13.391;4.611;6.137;5.248;11.935
1494509678;13.510;4.602;6.159;5.247;11.925
1494509683;13.339;4.653;6.134;5.239;12.064
1494509688;13.388;4.610;6.141;5.251;11.904
1494509693;13.390;4.612;6.131;5.252;11.934
1494509698;13.530;4.663;6.132;5.240;11.936
1494509703;13.391;4.610;6.132;5.242;12.082
1494509708;13.390;4.609;6.158;5.251;11.905
1494509713;13.527;4.644;6.168;5.251;11.902
1494509718;13.357;4.652;6.131;5.239;12.081
1494509723;13.391;4.611;6.137;5.248;11.915
1494509728;13.389;4.612;6.136;5.250;11.931
1494509733;13.530;4.662;6.131;5.239;11.929
1494509739;13.391;4.612;6.150;5.251;11.926
1494509744;13.371;4.607;6.138;5.264;11.877
1494509749;13.527;4.661;6.137;5.248;11.928
1494509754;13.391;4.602;6.143;5.235;12.091
1494509759;13.391;4.613;6.139;5.246;11.930
1494509764;13.531;4.620;6.138;5.247;11.939
1494509769;13.360;4.663;6.133;5.238;12.092
1494509774;13.373;4.605;6.132;5.246;11.892
1494509779;13.368;4.608;6.128;5.245;11.931
1494509784;13.530;4.665;6.126;5.235;11.934
1494509789;13.391;4.612;6.130;5.242;12.088
1494509794;13.391;4.610;6.128;5.245;11.931
1494509799;13.530;4.661;6.124;5.247;11.941
1494509804;13.343;4.612;6.124;5.243;12.079
1494509809;13.376;4.601;6.127;5.250;11.911
1494509814;13.385;4.605;6.124;5.248;11.936
1494509819;13.530;4.656;6.123;5.239;12.012
1494509824;13.391;4.604;6.119;5.252;12.105
1494509829;13.391;4.603;6.135;5.250;11.935
1494509834;13.503;4.648;6.128;5.252;11.916
1494509839;13.349;4.583;6.125;5.244;12.079
1494509844;13.387;4.597;6.122;5.248;11.935
1494509849;13.474;4.597;6.119;5.248;11.935
1494509855;13.521;4.648;6.111;5.238;12.085
1494509860;13.391;4.596;6.124;5.250;11.949
1494509865;13.390;4.592;6.153;5.253;11.919
1494509870;13.509;4.639;6.114;5.251;11.909
1494509875;13.387;4.582;6.123;5.243;12.080
1494509880;13.390;4.592;6.118;5.253;11.939
1494509885;13.530;4.590;6.120;5.253;11.942
1494509890;13.359;4.641;6.110;5.244;12.081
1494509895;13.391;4.588;6.121;5.258;11.843
1494509900;13.371;4.580;6.119;5.257;11.928
1494509905;13.511;4.632;6.112;5.247;11.939
1494509910;13.390;4.581;6.118;5.240;12.086
1494509915;13.390;4.584;6.111;5.251;11.949
1494509920;13.530;4.616;6.114;5.250;11.949
1494509925;13.360;4.632;6.112;5.240;12.083
1494509930;13.352;4.578;6.126;5.254;11.910
1494509935;13.385;4.583;6.111;5.253;11.951
1494509940;13.530;4.635;6.109;5.244;11.952
1494509945;13.390;4.582;6.117;5.259;12.090
1494509950;13.390;4.582;6.113;5.251;11.953
1494509955;13.530;4.634;6.113;5.251;11.958
1494509960;13.342;4.565;6.125;5.246;12.083
1494509965;13.387;4.581;6.115;5.253;11.926
1494509971;13.430;4.582;6.100;5.251;11.955
1494509976;13.530;4.632;6.094;5.241;12.031
1494509981;13.390;4.582;6.122;5.253;12.116
1494509986;13.390;4.582;6.108;5.253;11.964
1494509991;13.509;4.621;6.122;5.256;11.930
1494509996;13.387;4.569;6.115;5.242;12.102
1494510001;13.390;4.582;6.117;5.253;11.966
1494510006;13.530;4.583;6.110;5.256;11.967
1494510011;13.411;4.633;6.114;5.246;12.106
1494510016;13.390;4.582;6.117;5.256;11.991
1494510021;13.375;4.571;6.123;5.259;11.947
1494510026;13.526;4.633;6.105;5.262;11.966
1494510031;13.390;4.572;6.111;5.248;12.108
1494510036;13.390;4.581;6.106;5.256;11.972
1494510041;13.530;4.581;6.117;5.257;11.969
1494510046;13.359;4.633;6.102;5.248;12.117
1494510051;13.390;4.582;6.139;5.263;11.950
1494510056;13.385;4.582;6.115;5.265;11.963
1494510061;13.530;4.634;6.111;5.260;11.980
1494510066;13.390;4.578;6.109;5.255;12.119
1494510071;13.390;4.582;6.104;5.269;11.981
1494510076;13.530;4.621;6.084;5.271;11.984
1494510082;13.358;4.630;6.082;5.268;12.086
1494510087;13.375;4.580;6.071;5.276;11.950
1494510092;13.389;4.582;6.042;5.278;11.988
1494510097;13.530;4.634;6.090;5.272;11.989
1494510102;13.390;4.585;6.133;5.291;12.120
1494510107;13.389;4.584;6.132;5.284;11.993
1494510112;13.530;4.636;6.133;5.288;11.988
1494510117;13.346;4.568;6.127;5.283;12.122
1494510122;13.353;4.577;6.172;5.296;11.956
1494510127;13.393;4.584;6.126;5.297;11.986
1494510132;13.530;4.637;6.127;5.291;11.988
1494510137;13.390;4.587;6.142;5.304;12.133
1494510142;13.389;4.588;6.129;5.307;11.998
1494510147;13.514;4.633;6.123;5.313;11.987
1494510152;13.385;4.575;6.145;5.306;12.082
1494510157;13.379;4.585;6.133;5.313;12.006
1494510162;13.530;4.586;6.128;5.315;12.003
1494510167;13.444;4.637;6.106;5.307;12.133
1494510172;13.390;4.587;6.147;5.323;12.064
1494510177;13.360;4.581;6.162;5.325;11.980
1494510182;13.526;4.637;6.131;5.327;11.989
1494510187;13.374;4.571;6.157;5.322;12.132
1494510193;13.386;4.589;6.134;5.333;12.006
1494510198;13.530;4.589;6.146;5.336;12.004
1494510203;13.359;4.641;6.134;5.327;12.140
1494510208;13.387;4.583;6.154;5.344;11.977
1494510213;13.385;4.591;6.136;5.341;11.999
1494510218;13.511;4.641;6.139;5.346;12.008
1494510223;13.370;4.586;6.131;5.338;12.141
1494510228;13.385;4.595;6.138;5.350;12.018
1494510233;13.529;4.638;6.131;5.352;12.014
1494510238;13.360;4.638;6.128;5.346;12.145
1494510243;13.390;4.598;6.142;5.358;11.974
1494510248;13.352;4.593;6.143;5.363;11.988
1494510253;13.521;4.639;6.138;5.358;12.007
1494510258;13.386;4.601;6.139;5.367;12.140
1494510263;13.390;4.605;6.140;5.372;12.013
1494510268;13.530;4.656;6.144;5.375;12.016
1494510273;13.360;4.604;6.133;5.370;12.147
1494510278;13.389;4.600;6.163;5.384;11.987
1494510283;13.384;4.607;6.149;5.386;11.991
1494510288;13.525;4.659;6.130;5.375;12.054
1494510293;13.390;4.611;6.140;5.390;12.166
1494510298;13.389;4.612;6.132;5.392;12.011
1494510303;13.529;4.664;6.134;5.394;12.017
1494510309;13.367;4.601;6.141;5.401;12.132
1494510314;13.386;4.610;6.144;5.404;11.972
1494510319;13.462;4.610;6.147;5.399;12.011
1494510324;13.529;4.663;6.132;5.391;12.153
1494510329;13.384;4.613;6.140;5.406;12.085
1494510334;13.388;4.613;6.134;5.406;12.018
1494510339;13.530;4.664;6.130;5.406;12.004
1494510344;13.371;4.599;6.151;5.400;12.138
1494510349;13.374;4.608;6.141;5.411;11.998
1494510354;13.530;4.614;6.142;5.413;12.008
1494510359;13.440;4.666;6.132;5.407;12.143
1494510364;13.384;4.614;6.142;5.421;11.984
1494510369;13.389;4.614;6.143;5.421;12.009
1494510374;13.511;4.659;6.143;5.423;12.011
1494510379;13.371;4.598;6.140;5.414;12.134
1494510384;13.386;4.612;6.138;5.423;12.015
1494510389;13.530;4.611;6.135;5.426;12.005
1494510394;13.359;4.664;6.132;5.419;12.133
1494510399;13.389;4.615;6.143;5.432;11.981
1494510404;13.370;4.607;6.144;5.435;11.987
1494510409;13.513;4.660;6.134;5.428;11.991
1494510414;13.386;4.596;6.139;5.424;12.123